<?xml version="1.0" encoding="UTF-8" standalone="no" ?>
<gpx xmlns="http://www.topografix.com/GPX/1/1" xmlns:xsi="http://www.w3.org/2001/XMLSchema-instance" xsi:schemaLocation="http://www.topografix.com/GPX/1/1 http://www.topografix.com/GPX/1/1/gpx.xsd" version="1.1" creator="VisuGPX - https://www.visugpx.com">
  <metadata>
    <name>Parcours VTT FFC Saillans</name>
  </metadata>
  <trk>
    <name><![CDATA[VTT N°12 bleu - Les chamois  Les Essarts - 11 km - Déniv 385 m]]></name>
    <extensions>
      <line xmlns="http://www.topografix.com/GPX/gpx_style/0/2">
        <color>1026f7</color>
        <width>4</width>
      </line>
    </extensions>
    <trkseg>
      <trkpt lat="44.6973" lon="5.20002">
        <ele>281</ele>
        <time>2022-11-17T10:03:32Z</time>
      </trkpt>
      <trkpt lat="44.69737" lon="5.20003">
        <ele>282</ele>
        <time>2022-11-17T10:03:32Z</time>
      </trkpt>
      <trkpt lat="44.69746" lon="5.20011">
        <ele>283</ele>
        <time>2022-11-17T10:03:32Z</time>
      </trkpt>
      <trkpt lat="44.69752" lon="5.20005">
        <ele>284</ele>
        <time>2022-11-17T10:03:32Z</time>
      </trkpt>
      <trkpt lat="44.69757" lon="5.19993">
        <ele>285</ele>
        <time>2022-11-17T10:03:32Z</time>
      </trkpt>
      <trkpt lat="44.69788" lon="5.19961">
        <ele>288</ele>
        <time>2022-11-17T10:03:32Z</time>
      </trkpt>
      <trkpt lat="44.69798" lon="5.19956">
        <ele>289</ele>
        <time>2022-11-17T10:03:32Z</time>
      </trkpt>
      <trkpt lat="44.69819" lon="5.19936">
        <ele>289</ele>
        <time>2022-11-17T10:03:32Z</time>
      </trkpt>
      <trkpt lat="44.69904" lon="5.19817">
        <ele>291</ele>
        <time>2022-11-17T10:03:32Z</time>
      </trkpt>
      <trkpt lat="44.69918" lon="5.19807">
        <ele>291</ele>
        <time>2022-11-17T10:03:32Z</time>
      </trkpt>
      <trkpt lat="44.69974" lon="5.19786">
        <ele>290</ele>
        <time>2022-11-17T10:03:32Z</time>
      </trkpt>
      <trkpt lat="44.70062" lon="5.19789">
        <ele>292</ele>
        <time>2022-11-17T10:03:32Z</time>
      </trkpt>
      <trkpt lat="44.70141" lon="5.19779">
        <ele>294</ele>
        <time>2022-11-17T10:03:32Z</time>
      </trkpt>
      <trkpt lat="44.702" lon="5.19801">
        <ele>295</ele>
        <time>2022-11-17T10:03:32Z</time>
      </trkpt>
      <trkpt lat="44.70295" lon="5.19797">
        <ele>297</ele>
        <time>2022-11-17T10:03:32Z</time>
      </trkpt>
      <trkpt lat="44.70354" lon="5.1981">
        <ele>300</ele>
        <time>2022-11-17T10:03:32Z</time>
      </trkpt>
      <trkpt lat="44.70444" lon="5.19816">
        <ele>308</ele>
        <time>2022-11-17T10:03:32Z</time>
      </trkpt>
      <trkpt lat="44.70454" lon="5.19812">
        <ele>309</ele>
        <time>2022-11-17T10:03:32Z</time>
      </trkpt>
      <trkpt lat="44.70533" lon="5.19735">
        <ele>318</ele>
        <time>2022-11-17T10:03:32Z</time>
      </trkpt>
      <trkpt lat="44.70545" lon="5.19714">
        <ele>321</ele>
        <time>2022-11-17T10:03:32Z</time>
      </trkpt>
      <trkpt lat="44.70555" lon="5.19691">
        <ele>323</ele>
        <time>2022-11-17T10:03:32Z</time>
      </trkpt>
      <trkpt lat="44.70561" lon="5.19681">
        <ele>324</ele>
        <time>2022-11-17T10:03:32Z</time>
      </trkpt>
      <trkpt lat="44.70578" lon="5.19667">
        <ele>326</ele>
        <time>2022-11-17T10:03:32Z</time>
      </trkpt>
      <trkpt lat="44.70596" lon="5.19662">
        <ele>329</ele>
        <time>2022-11-17T10:03:32Z</time>
      </trkpt>
      <trkpt lat="44.70616" lon="5.19661">
        <ele>331</ele>
        <time>2022-11-17T10:03:32Z</time>
      </trkpt>
      <trkpt lat="44.70705" lon="5.19683">
        <ele>338</ele>
        <time>2022-11-17T10:03:32Z</time>
      </trkpt>
      <trkpt lat="44.70773" lon="5.19717">
        <ele>335</ele>
        <time>2022-11-17T10:03:32Z</time>
      </trkpt>
      <trkpt lat="44.70821" lon="5.19714">
        <ele>332</ele>
        <time>2022-11-17T10:03:32Z</time>
      </trkpt>
      <trkpt lat="44.70839" lon="5.19707">
        <ele>330</ele>
        <time>2022-11-17T10:03:32Z</time>
      </trkpt>
      <trkpt lat="44.70861" lon="5.19692">
        <ele>328</ele>
        <time>2022-11-17T10:03:32Z</time>
      </trkpt>
      <trkpt lat="44.70889" lon="5.19688">
        <ele>325</ele>
        <time>2022-11-17T10:03:32Z</time>
      </trkpt>
      <trkpt lat="44.70899" lon="5.19682">
        <ele>324</ele>
        <time>2022-11-17T10:03:32Z</time>
      </trkpt>
      <trkpt lat="44.70913" lon="5.19666">
        <ele>323</ele>
        <time>2022-11-17T10:03:32Z</time>
      </trkpt>
      <trkpt lat="44.70923" lon="5.1965">
        <ele>321</ele>
        <time>2022-11-17T10:03:32Z</time>
      </trkpt>
      <trkpt lat="44.70929" lon="5.19645">
        <ele>321</ele>
        <time>2022-11-17T10:03:32Z</time>
      </trkpt>
      <trkpt lat="44.70949" lon="5.19639">
        <ele>319</ele>
        <time>2022-11-17T10:03:32Z</time>
      </trkpt>
      <trkpt lat="44.70957" lon="5.19633">
        <ele>319</ele>
        <time>2022-11-17T10:03:32Z</time>
      </trkpt>
      <trkpt lat="44.7096" lon="5.19624">
        <ele>318</ele>
        <time>2022-11-17T10:03:32Z</time>
      </trkpt>
      <trkpt lat="44.70956" lon="5.19609">
        <ele>318</ele>
        <time>2022-11-17T10:03:32Z</time>
      </trkpt>
      <trkpt lat="44.70949" lon="5.19599">
        <ele>319</ele>
        <time>2022-11-17T10:03:32Z</time>
      </trkpt>
      <trkpt lat="44.70944" lon="5.19589">
        <ele>320</ele>
        <time>2022-11-17T10:03:32Z</time>
      </trkpt>
      <trkpt lat="44.70943" lon="5.19575">
        <ele>321</ele>
        <time>2022-11-17T10:03:32Z</time>
      </trkpt>
      <trkpt lat="44.70945" lon="5.19562">
        <ele>322</ele>
        <time>2022-11-17T10:03:32Z</time>
      </trkpt>
      <trkpt lat="44.71001" lon="5.1944">
        <ele>326</ele>
        <time>2022-11-17T10:03:32Z</time>
      </trkpt>
      <trkpt lat="44.71049" lon="5.19289">
        <ele>328</ele>
        <time>2022-11-17T10:03:32Z</time>
      </trkpt>
      <trkpt lat="44.7107" lon="5.19259">
        <ele>328</ele>
        <time>2022-11-17T10:03:32Z</time>
      </trkpt>
      <trkpt lat="44.71122" lon="5.19216">
        <ele>330</ele>
        <time>2022-11-17T10:03:32Z</time>
      </trkpt>
      <trkpt lat="44.71129" lon="5.19214">
        <ele>330</ele>
        <time>2022-11-17T10:03:32Z</time>
      </trkpt>
      <trkpt lat="44.71153" lon="5.19221">
        <ele>332</ele>
        <time>2022-11-17T10:03:32Z</time>
      </trkpt>
      <trkpt lat="44.71163" lon="5.19221">
        <ele>333</ele>
        <time>2022-11-17T10:03:32Z</time>
      </trkpt>
      <trkpt lat="44.71224" lon="5.19191">
        <ele>333</ele>
        <time>2022-11-17T10:03:32Z</time>
      </trkpt>
      <trkpt lat="44.71309" lon="5.19161">
        <ele>336</ele>
        <time>2022-11-17T10:03:32Z</time>
      </trkpt>
      <trkpt lat="44.71334" lon="5.19168">
        <ele>339</ele>
        <time>2022-11-17T10:03:32Z</time>
      </trkpt>
      <trkpt lat="44.71358" lon="5.19158">
        <ele>340</ele>
        <time>2022-11-17T10:03:32Z</time>
      </trkpt>
      <trkpt lat="44.71408" lon="5.19108">
        <ele>339</ele>
        <time>2022-11-17T10:03:32Z</time>
      </trkpt>
      <trkpt lat="44.71467" lon="5.19092">
        <ele>344</ele>
        <time>2022-11-17T10:03:32Z</time>
      </trkpt>
      <trkpt lat="44.71489" lon="5.1909">
        <ele>347</ele>
        <time>2022-11-17T10:03:32Z</time>
      </trkpt>
      <trkpt lat="44.71482" lon="5.19094">
        <ele>348</ele>
        <time>2022-11-17T10:03:32Z</time>
      </trkpt>
      <trkpt lat="44.71492" lon="5.19104">
        <ele>352</ele>
        <time>2022-11-17T10:03:32Z</time>
      </trkpt>
      <trkpt lat="44.71523" lon="5.19126">
        <ele>355</ele>
        <time>2022-11-17T10:03:32Z</time>
      </trkpt>
      <trkpt lat="44.7156" lon="5.19136">
        <ele>359</ele>
        <time>2022-11-17T10:03:32Z</time>
      </trkpt>
      <trkpt lat="44.71586" lon="5.19136">
        <ele>362</ele>
        <time>2022-11-17T10:03:32Z</time>
      </trkpt>
      <trkpt lat="44.71647" lon="5.19158">
        <ele>367</ele>
        <time>2022-11-17T10:03:32Z</time>
      </trkpt>
      <trkpt lat="44.71676" lon="5.19185">
        <ele>370</ele>
        <time>2022-11-17T10:03:32Z</time>
      </trkpt>
      <trkpt lat="44.71692" lon="5.1919">
        <ele>372</ele>
        <time>2022-11-17T10:03:32Z</time>
      </trkpt>
      <trkpt lat="44.71694" lon="5.19201">
        <ele>373</ele>
        <time>2022-11-17T10:03:32Z</time>
      </trkpt>
      <trkpt lat="44.71688" lon="5.19207">
        <ele>373</ele>
        <time>2022-11-17T10:03:32Z</time>
      </trkpt>
      <trkpt lat="44.71673" lon="5.19205">
        <ele>374</ele>
        <time>2022-11-17T10:03:32Z</time>
      </trkpt>
      <trkpt lat="44.71648" lon="5.19193">
        <ele>376</ele>
        <time>2022-11-17T10:03:32Z</time>
      </trkpt>
      <trkpt lat="44.7164" lon="5.19192">
        <ele>376</ele>
        <time>2022-11-17T10:03:32Z</time>
      </trkpt>
      <trkpt lat="44.71632" lon="5.19194">
        <ele>377</ele>
        <time>2022-11-17T10:03:32Z</time>
      </trkpt>
      <trkpt lat="44.71623" lon="5.19199">
        <ele>378</ele>
        <time>2022-11-17T10:03:32Z</time>
      </trkpt>
      <trkpt lat="44.71595" lon="5.19205">
        <ele>380</ele>
        <time>2022-11-17T10:03:32Z</time>
      </trkpt>
      <trkpt lat="44.71578" lon="5.19218">
        <ele>382</ele>
        <time>2022-11-17T10:03:32Z</time>
      </trkpt>
      <trkpt lat="44.7156" lon="5.19245">
        <ele>384</ele>
        <time>2022-11-17T10:03:32Z</time>
      </trkpt>
      <trkpt lat="44.71551" lon="5.19251">
        <ele>385</ele>
        <time>2022-11-17T10:03:32Z</time>
      </trkpt>
      <trkpt lat="44.71542" lon="5.19252">
        <ele>385</ele>
        <time>2022-11-17T10:03:32Z</time>
      </trkpt>
      <trkpt lat="44.71535" lon="5.1925">
        <ele>386</ele>
        <time>2022-11-17T10:03:32Z</time>
      </trkpt>
      <trkpt lat="44.71526" lon="5.19244">
        <ele>387</ele>
        <time>2022-11-17T10:03:32Z</time>
      </trkpt>
      <trkpt lat="44.71517" lon="5.19242">
        <ele>387</ele>
        <time>2022-11-17T10:03:32Z</time>
      </trkpt>
      <trkpt lat="44.7149" lon="5.19248">
        <ele>390</ele>
        <time>2022-11-17T10:03:32Z</time>
      </trkpt>
      <trkpt lat="44.71481" lon="5.19254">
        <ele>390</ele>
        <time>2022-11-17T10:03:32Z</time>
      </trkpt>
      <trkpt lat="44.71468" lon="5.19266">
        <ele>392</ele>
        <time>2022-11-17T10:03:32Z</time>
      </trkpt>
      <trkpt lat="44.71445" lon="5.19281">
        <ele>394</ele>
        <time>2022-11-17T10:03:32Z</time>
      </trkpt>
      <trkpt lat="44.71432" lon="5.19297">
        <ele>395</ele>
        <time>2022-11-17T10:03:32Z</time>
      </trkpt>
      <trkpt lat="44.71417" lon="5.19305">
        <ele>397</ele>
        <time>2022-11-17T10:03:32Z</time>
      </trkpt>
      <trkpt lat="44.71366" lon="5.19319">
        <ele>401</ele>
        <time>2022-11-17T10:03:32Z</time>
      </trkpt>
      <trkpt lat="44.71185" lon="5.19415">
        <ele>413</ele>
        <time>2022-11-17T10:03:32Z</time>
      </trkpt>
      <trkpt lat="44.71177" lon="5.19427">
        <ele>413</ele>
        <time>2022-11-17T10:03:32Z</time>
      </trkpt>
      <trkpt lat="44.71176" lon="5.19439">
        <ele>413</ele>
        <time>2022-11-17T10:03:32Z</time>
      </trkpt>
      <trkpt lat="44.71221" lon="5.19575">
        <ele>417</ele>
        <time>2022-11-17T10:03:32Z</time>
      </trkpt>
      <trkpt lat="44.71229" lon="5.19582">
        <ele>418</ele>
        <time>2022-11-17T10:03:32Z</time>
      </trkpt>
      <trkpt lat="44.71239" lon="5.19584">
        <ele>418</ele>
        <time>2022-11-17T10:03:32Z</time>
      </trkpt>
      <trkpt lat="44.71286" lon="5.19578">
        <ele>422</ele>
        <time>2022-11-17T10:03:32Z</time>
      </trkpt>
      <trkpt lat="44.71303" lon="5.19583">
        <ele>424</ele>
        <time>2022-11-17T10:03:32Z</time>
      </trkpt>
      <trkpt lat="44.7132" lon="5.19593">
        <ele>425</ele>
        <time>2022-11-17T10:03:32Z</time>
      </trkpt>
      <trkpt lat="44.71332" lon="5.19607">
        <ele>427</ele>
        <time>2022-11-17T10:03:32Z</time>
      </trkpt>
      <trkpt lat="44.71355" lon="5.19664">
        <ele>431</ele>
        <time>2022-11-17T10:03:32Z</time>
      </trkpt>
      <trkpt lat="44.71378" lon="5.19689">
        <ele>434</ele>
        <time>2022-11-17T10:03:32Z</time>
      </trkpt>
      <trkpt lat="44.71405" lon="5.19702">
        <ele>435</ele>
        <time>2022-11-17T10:03:32Z</time>
      </trkpt>
      <trkpt lat="44.71459" lon="5.19709">
        <ele>436</ele>
        <time>2022-11-17T10:03:32Z</time>
      </trkpt>
      <trkpt lat="44.71467" lon="5.19707">
        <ele>436</ele>
        <time>2022-11-17T10:03:32Z</time>
      </trkpt>
      <trkpt lat="44.71544" lon="5.19655">
        <ele>437</ele>
        <time>2022-11-17T10:03:32Z</time>
      </trkpt>
      <trkpt lat="44.71589" lon="5.19644">
        <ele>439</ele>
        <time>2022-11-17T10:03:32Z</time>
      </trkpt>
      <trkpt lat="44.71624" lon="5.19649">
        <ele>439</ele>
        <time>2022-11-17T10:03:32Z</time>
      </trkpt>
      <trkpt lat="44.71634" lon="5.19646">
        <ele>439</ele>
        <time>2022-11-17T10:03:32Z</time>
      </trkpt>
      <trkpt lat="44.71722" lon="5.19598">
        <ele>431</ele>
        <time>2022-11-17T10:03:32Z</time>
      </trkpt>
      <trkpt lat="44.71769" lon="5.19587">
        <ele>427</ele>
        <time>2022-11-17T10:03:32Z</time>
      </trkpt>
      <trkpt lat="44.71808" lon="5.19567">
        <ele>423</ele>
        <time>2022-11-17T10:03:32Z</time>
      </trkpt>
      <trkpt lat="44.71914" lon="5.19541">
        <ele>416</ele>
        <time>2022-11-17T10:03:32Z</time>
      </trkpt>
      <trkpt lat="44.71947" lon="5.19566">
        <ele>413</ele>
        <time>2022-11-17T10:03:32Z</time>
      </trkpt>
      <trkpt lat="44.71957" lon="5.19567">
        <ele>412</ele>
        <time>2022-11-17T10:03:32Z</time>
      </trkpt>
      <trkpt lat="44.71967" lon="5.19565">
        <ele>411</ele>
        <time>2022-11-17T10:03:32Z</time>
      </trkpt>
      <trkpt lat="44.72018" lon="5.19522">
        <ele>406</ele>
        <time>2022-11-17T10:03:32Z</time>
      </trkpt>
      <trkpt lat="44.72058" lon="5.19525">
        <ele>404</ele>
        <time>2022-11-17T10:03:32Z</time>
      </trkpt>
      <trkpt lat="44.72139" lon="5.19509">
        <ele>401</ele>
        <time>2022-11-17T10:03:32Z</time>
      </trkpt>
      <trkpt lat="44.72146" lon="5.19514">
        <ele>401</ele>
        <time>2022-11-17T10:03:32Z</time>
      </trkpt>
      <trkpt lat="44.72149" lon="5.19524">
        <ele>401</ele>
        <time>2022-11-17T10:03:32Z</time>
      </trkpt>
      <trkpt lat="44.72135" lon="5.19539">
        <ele>401</ele>
        <time>2022-11-17T10:03:32Z</time>
      </trkpt>
      <trkpt lat="44.72033" lon="5.19599">
        <ele>404</ele>
        <time>2022-11-17T10:03:33Z</time>
      </trkpt>
      <trkpt lat="44.72012" lon="5.19629">
        <ele>406</ele>
        <time>2022-11-17T10:03:33Z</time>
      </trkpt>
      <trkpt lat="44.72007" lon="5.19637">
        <ele>409</ele>
        <time>2022-11-17T10:03:33Z</time>
      </trkpt>
      <trkpt lat="44.72" lon="5.19646">
        <ele>409</ele>
        <time>2022-11-17T10:03:33Z</time>
      </trkpt>
      <trkpt lat="44.71987" lon="5.19663">
        <ele>411</ele>
        <time>2022-11-17T10:03:33Z</time>
      </trkpt>
      <trkpt lat="44.71978" lon="5.19669">
        <ele>411</ele>
        <time>2022-11-17T10:03:33Z</time>
      </trkpt>
      <trkpt lat="44.71969" lon="5.19674">
        <ele>414</ele>
        <time>2022-11-17T10:03:33Z</time>
      </trkpt>
      <trkpt lat="44.71962" lon="5.19681">
        <ele>413</ele>
        <time>2022-11-17T10:03:33Z</time>
      </trkpt>
      <trkpt lat="44.71921" lon="5.19697">
        <ele>414</ele>
        <time>2022-11-17T10:03:33Z</time>
      </trkpt>
      <trkpt lat="44.71845" lon="5.19726">
        <ele>410</ele>
        <time>2022-11-17T10:03:33Z</time>
      </trkpt>
      <trkpt lat="44.71825" lon="5.19745">
        <ele>409</ele>
        <time>2022-11-17T10:03:33Z</time>
      </trkpt>
      <trkpt lat="44.71818" lon="5.19749">
        <ele>405</ele>
        <time>2022-11-17T10:03:33Z</time>
      </trkpt>
      <trkpt lat="44.7179" lon="5.19775">
        <ele>407</ele>
        <time>2022-11-17T10:03:33Z</time>
      </trkpt>
      <trkpt lat="44.71754" lon="5.19815">
        <ele>400</ele>
        <time>2022-11-17T10:03:33Z</time>
      </trkpt>
      <trkpt lat="44.71748" lon="5.19824">
        <ele>400</ele>
        <time>2022-11-17T10:03:33Z</time>
      </trkpt>
      <trkpt lat="44.71735" lon="5.19839">
        <ele>399</ele>
        <time>2022-11-17T10:03:33Z</time>
      </trkpt>
      <trkpt lat="44.71704" lon="5.19894">
        <ele>400</ele>
        <time>2022-11-17T10:03:33Z</time>
      </trkpt>
      <trkpt lat="44.71697" lon="5.19905">
        <ele>394</ele>
        <time>2022-11-17T10:03:33Z</time>
      </trkpt>
      <trkpt lat="44.71691" lon="5.19913">
        <ele>396</ele>
        <time>2022-11-17T10:03:33Z</time>
      </trkpt>
      <trkpt lat="44.71686" lon="5.19926">
        <ele>396</ele>
        <time>2022-11-17T10:03:33Z</time>
      </trkpt>
      <trkpt lat="44.71683" lon="5.19938">
        <ele>392</ele>
        <time>2022-11-17T10:03:33Z</time>
      </trkpt>
      <trkpt lat="44.71684" lon="5.19951">
        <ele>393</ele>
        <time>2022-11-17T10:03:33Z</time>
      </trkpt>
      <trkpt lat="44.71684" lon="5.19962">
        <ele>393</ele>
        <time>2022-11-17T10:03:33Z</time>
      </trkpt>
      <trkpt lat="44.71676" lon="5.19963">
        <ele>393</ele>
        <time>2022-11-17T10:03:33Z</time>
      </trkpt>
      <trkpt lat="44.7167" lon="5.19952">
        <ele>388</ele>
        <time>2022-11-17T10:03:33Z</time>
      </trkpt>
      <trkpt lat="44.71667" lon="5.19941">
        <ele>387</ele>
        <time>2022-11-17T10:03:33Z</time>
      </trkpt>
      <trkpt lat="44.71666" lon="5.1993">
        <ele>387</ele>
        <time>2022-11-17T10:03:33Z</time>
      </trkpt>
      <trkpt lat="44.71667" lon="5.19907">
        <ele>386</ele>
        <time>2022-11-17T10:03:33Z</time>
      </trkpt>
      <trkpt lat="44.71671" lon="5.19893">
        <ele>385</ele>
        <time>2022-11-17T10:03:33Z</time>
      </trkpt>
      <trkpt lat="44.71675" lon="5.19883">
        <ele>388</ele>
        <time>2022-11-17T10:03:33Z</time>
      </trkpt>
      <trkpt lat="44.71677" lon="5.19873">
        <ele>387</ele>
        <time>2022-11-17T10:03:33Z</time>
      </trkpt>
      <trkpt lat="44.71676" lon="5.19863">
        <ele>387</ele>
        <time>2022-11-17T10:03:33Z</time>
      </trkpt>
      <trkpt lat="44.71681" lon="5.19853">
        <ele>385</ele>
        <time>2022-11-17T10:03:33Z</time>
      </trkpt>
      <trkpt lat="44.71686" lon="5.19845">
        <ele>388</ele>
        <time>2022-11-17T10:03:33Z</time>
      </trkpt>
      <trkpt lat="44.71686" lon="5.19835">
        <ele>385</ele>
        <time>2022-11-17T10:03:33Z</time>
      </trkpt>
      <trkpt lat="44.71679" lon="5.19831">
        <ele>384</ele>
        <time>2022-11-17T10:03:33Z</time>
      </trkpt>
      <trkpt lat="44.71664" lon="5.19835">
        <ele>383</ele>
        <time>2022-11-17T10:03:33Z</time>
      </trkpt>
      <trkpt lat="44.71646" lon="5.19855">
        <ele>381</ele>
        <time>2022-11-17T10:03:33Z</time>
      </trkpt>
      <trkpt lat="44.71638" lon="5.19859">
        <ele>381</ele>
        <time>2022-11-17T10:03:33Z</time>
      </trkpt>
      <trkpt lat="44.71624" lon="5.19862">
        <ele>379</ele>
        <time>2022-11-17T10:03:33Z</time>
      </trkpt>
      <trkpt lat="44.71598" lon="5.19906">
        <ele>375</ele>
        <time>2022-11-17T10:03:33Z</time>
      </trkpt>
      <trkpt lat="44.71591" lon="5.19901">
        <ele>375</ele>
        <time>2022-11-17T10:03:33Z</time>
      </trkpt>
      <trkpt lat="44.71588" lon="5.19892">
        <ele>377</ele>
        <time>2022-11-17T10:03:33Z</time>
      </trkpt>
      <trkpt lat="44.71584" lon="5.19902">
        <ele>375</ele>
        <time>2022-11-17T10:03:33Z</time>
      </trkpt>
      <trkpt lat="44.71585" lon="5.19935">
        <ele>372</ele>
        <time>2022-11-17T10:03:33Z</time>
      </trkpt>
      <trkpt lat="44.7158" lon="5.19928">
        <ele>372</ele>
        <time>2022-11-17T10:03:33Z</time>
      </trkpt>
      <trkpt lat="44.71574" lon="5.19917">
        <ele>374</ele>
        <time>2022-11-17T10:03:33Z</time>
      </trkpt>
      <trkpt lat="44.7157" lon="5.19909">
        <ele>376</ele>
        <time>2022-11-17T10:03:33Z</time>
      </trkpt>
      <trkpt lat="44.71562" lon="5.19911">
        <ele>375</ele>
        <time>2022-11-17T10:03:33Z</time>
      </trkpt>
      <trkpt lat="44.71558" lon="5.19921">
        <ele>375</ele>
        <time>2022-11-17T10:03:33Z</time>
      </trkpt>
      <trkpt lat="44.71556" lon="5.19931">
        <ele>373</ele>
        <time>2022-11-17T10:03:33Z</time>
      </trkpt>
      <trkpt lat="44.71556" lon="5.19943">
        <ele>373</ele>
        <time>2022-11-17T10:03:33Z</time>
      </trkpt>
      <trkpt lat="44.71554" lon="5.19957">
        <ele>372</ele>
        <time>2022-11-17T10:03:33Z</time>
      </trkpt>
      <trkpt lat="44.71563" lon="5.20005">
        <ele>374</ele>
        <time>2022-11-17T10:03:33Z</time>
      </trkpt>
      <trkpt lat="44.71562" lon="5.20055">
        <ele>375</ele>
        <time>2022-11-17T10:03:33Z</time>
      </trkpt>
      <trkpt lat="44.71569" lon="5.20113">
        <ele>377</ele>
        <time>2022-11-17T10:03:33Z</time>
      </trkpt>
      <trkpt lat="44.71565" lon="5.2015">
        <ele>378</ele>
        <time>2022-11-17T10:03:33Z</time>
      </trkpt>
      <trkpt lat="44.71568" lon="5.20196">
        <ele>379</ele>
        <time>2022-11-17T10:03:33Z</time>
      </trkpt>
      <trkpt lat="44.71573" lon="5.20208">
        <ele>380</ele>
        <time>2022-11-17T10:03:33Z</time>
      </trkpt>
      <trkpt lat="44.7163" lon="5.20253">
        <ele>383</ele>
        <time>2022-11-17T10:03:33Z</time>
      </trkpt>
      <trkpt lat="44.71663" lon="5.20259">
        <ele>384</ele>
        <time>2022-11-17T10:03:33Z</time>
      </trkpt>
      <trkpt lat="44.7171" lon="5.20248">
        <ele>387</ele>
        <time>2022-11-17T10:03:33Z</time>
      </trkpt>
      <trkpt lat="44.71736" lon="5.20232">
        <ele>391</ele>
        <time>2022-11-17T10:03:33Z</time>
      </trkpt>
      <trkpt lat="44.71743" lon="5.20222">
        <ele>392</ele>
        <time>2022-11-17T10:03:33Z</time>
      </trkpt>
      <trkpt lat="44.71772" lon="5.202">
        <ele>397</ele>
        <time>2022-11-17T10:03:33Z</time>
      </trkpt>
      <trkpt lat="44.71782" lon="5.20201">
        <ele>398</ele>
        <time>2022-11-17T10:03:33Z</time>
      </trkpt>
      <trkpt lat="44.71791" lon="5.20206">
        <ele>400</ele>
        <time>2022-11-17T10:03:33Z</time>
      </trkpt>
      <trkpt lat="44.71817" lon="5.20241">
        <ele>404</ele>
        <time>2022-11-17T10:03:33Z</time>
      </trkpt>
      <trkpt lat="44.71825" lon="5.20245">
        <ele>404</ele>
        <time>2022-11-17T10:03:33Z</time>
      </trkpt>
      <trkpt lat="44.7189" lon="5.20255">
        <ele>409</ele>
        <time>2022-11-17T10:03:33Z</time>
      </trkpt>
      <trkpt lat="44.7194" lon="5.20282">
        <ele>410</ele>
        <time>2022-11-17T10:03:33Z</time>
      </trkpt>
      <trkpt lat="44.71936" lon="5.20292">
        <ele>411</ele>
        <time>2022-11-17T10:03:33Z</time>
      </trkpt>
      <trkpt lat="44.7193" lon="5.20288">
        <ele>411</ele>
        <time>2022-11-17T10:03:33Z</time>
      </trkpt>
      <trkpt lat="44.71922" lon="5.2029">
        <ele>413</ele>
        <time>2022-11-17T10:03:33Z</time>
      </trkpt>
      <trkpt lat="44.71922" lon="5.203">
        <ele>414</ele>
        <time>2022-11-17T10:03:33Z</time>
      </trkpt>
      <trkpt lat="44.71926" lon="5.20309">
        <ele>416</ele>
        <time>2022-11-17T10:03:33Z</time>
      </trkpt>
      <trkpt lat="44.71939" lon="5.20327">
        <ele>419</ele>
        <time>2022-11-17T10:03:33Z</time>
      </trkpt>
      <trkpt lat="44.71943" lon="5.20337">
        <ele>420</ele>
        <time>2022-11-17T10:03:33Z</time>
      </trkpt>
      <trkpt lat="44.71945" lon="5.2035">
        <ele>421</ele>
        <time>2022-11-17T10:03:33Z</time>
      </trkpt>
      <trkpt lat="44.71941" lon="5.20361">
        <ele>423</ele>
        <time>2022-11-17T10:03:33Z</time>
      </trkpt>
      <trkpt lat="44.71871" lon="5.20443">
        <ele>438</ele>
        <time>2022-11-17T10:03:33Z</time>
      </trkpt>
      <trkpt lat="44.71868" lon="5.20455">
        <ele>440</ele>
        <time>2022-11-17T10:03:33Z</time>
      </trkpt>
      <trkpt lat="44.71874" lon="5.20461">
        <ele>441</ele>
        <time>2022-11-17T10:03:33Z</time>
      </trkpt>
      <trkpt lat="44.71905" lon="5.20455">
        <ele>444</ele>
        <time>2022-11-17T10:03:33Z</time>
      </trkpt>
      <trkpt lat="44.71911" lon="5.20463">
        <ele>445</ele>
        <time>2022-11-17T10:03:33Z</time>
      </trkpt>
      <trkpt lat="44.71924" lon="5.20554">
        <ele>453</ele>
        <time>2022-11-17T10:03:33Z</time>
      </trkpt>
      <trkpt lat="44.71927" lon="5.20563">
        <ele>454</ele>
        <time>2022-11-17T10:03:33Z</time>
      </trkpt>
      <trkpt lat="44.71932" lon="5.20595">
        <ele>458</ele>
        <time>2022-11-17T10:03:33Z</time>
      </trkpt>
      <trkpt lat="44.7194" lon="5.20664">
        <ele>467</ele>
        <time>2022-11-17T10:03:33Z</time>
      </trkpt>
      <trkpt lat="44.71954" lon="5.20717">
        <ele>475</ele>
        <time>2022-11-17T10:03:33Z</time>
      </trkpt>
      <trkpt lat="44.71953" lon="5.2074">
        <ele>479</ele>
        <time>2022-11-17T10:03:33Z</time>
      </trkpt>
      <trkpt lat="44.71945" lon="5.20775">
        <ele>484</ele>
        <time>2022-11-17T10:03:33Z</time>
      </trkpt>
      <trkpt lat="44.71933" lon="5.20804">
        <ele>488</ele>
        <time>2022-11-17T10:03:33Z</time>
      </trkpt>
      <trkpt lat="44.719" lon="5.20854">
        <ele>496</ele>
        <time>2022-11-17T10:03:33Z</time>
      </trkpt>
      <trkpt lat="44.71895" lon="5.20867">
        <ele>497</ele>
        <time>2022-11-17T10:03:33Z</time>
      </trkpt>
      <trkpt lat="44.71896" lon="5.20878">
        <ele>498</ele>
        <time>2022-11-17T10:03:33Z</time>
      </trkpt>
      <trkpt lat="44.71903" lon="5.20882">
        <ele>498</ele>
        <time>2022-11-17T10:03:33Z</time>
      </trkpt>
      <trkpt lat="44.71966" lon="5.2088">
        <ele>505</ele>
        <time>2022-11-17T10:03:33Z</time>
      </trkpt>
      <trkpt lat="44.71975" lon="5.20884">
        <ele>506</ele>
        <time>2022-11-17T10:03:33Z</time>
      </trkpt>
      <trkpt lat="44.71977" lon="5.20893">
        <ele>507</ele>
        <time>2022-11-17T10:03:33Z</time>
      </trkpt>
      <trkpt lat="44.71969" lon="5.209">
        <ele>508</ele>
        <time>2022-11-17T10:03:33Z</time>
      </trkpt>
      <trkpt lat="44.71954" lon="5.20904">
        <ele>511</ele>
        <time>2022-11-17T10:03:33Z</time>
      </trkpt>
      <trkpt lat="44.71922" lon="5.20926">
        <ele>515</ele>
        <time>2022-11-17T10:03:33Z</time>
      </trkpt>
      <trkpt lat="44.71898" lon="5.20952">
        <ele>519</ele>
        <time>2022-11-17T10:03:33Z</time>
      </trkpt>
      <trkpt lat="44.71879" lon="5.20958">
        <ele>522</ele>
        <time>2022-11-17T10:03:33Z</time>
      </trkpt>
      <trkpt lat="44.71871" lon="5.2096">
        <ele>524</ele>
        <time>2022-11-17T10:03:33Z</time>
      </trkpt>
      <trkpt lat="44.71839" lon="5.2098">
        <ele>529</ele>
        <time>2022-11-17T10:03:33Z</time>
      </trkpt>
      <trkpt lat="44.71799" lon="5.21006">
        <ele>537</ele>
        <time>2022-11-17T10:03:33Z</time>
      </trkpt>
      <trkpt lat="44.71782" lon="5.2101">
        <ele>540</ele>
        <time>2022-11-17T10:03:33Z</time>
      </trkpt>
      <trkpt lat="44.71784" lon="5.2102">
        <ele>542</ele>
        <time>2022-11-17T10:03:33Z</time>
      </trkpt>
      <trkpt lat="44.71843" lon="5.21049">
        <ele>552</ele>
        <time>2022-11-17T10:03:33Z</time>
      </trkpt>
      <trkpt lat="44.71846" lon="5.21058">
        <ele>553</ele>
        <time>2022-11-17T10:03:33Z</time>
      </trkpt>
      <trkpt lat="44.71842" lon="5.21067">
        <ele>554</ele>
        <time>2022-11-17T10:03:33Z</time>
      </trkpt>
      <trkpt lat="44.71834" lon="5.21067">
        <ele>556</ele>
        <time>2022-11-17T10:03:33Z</time>
      </trkpt>
      <trkpt lat="44.71818" lon="5.21074">
        <ele>559</ele>
        <time>2022-11-17T10:03:33Z</time>
      </trkpt>
      <trkpt lat="44.71811" lon="5.21073">
        <ele>560</ele>
        <time>2022-11-17T10:03:33Z</time>
      </trkpt>
      <trkpt lat="44.71781" lon="5.21079">
        <ele>565</ele>
        <time>2022-11-17T10:03:33Z</time>
      </trkpt>
      <trkpt lat="44.7175" lon="5.21079">
        <ele>568</ele>
        <time>2022-11-17T10:03:33Z</time>
      </trkpt>
      <trkpt lat="44.71728" lon="5.2109">
        <ele>571</ele>
        <time>2022-11-17T10:03:33Z</time>
      </trkpt>
      <trkpt lat="44.7172" lon="5.21088">
        <ele>572</ele>
        <time>2022-11-17T10:03:33Z</time>
      </trkpt>
      <trkpt lat="44.71713" lon="5.21066">
        <ele>572</ele>
        <time>2022-11-17T10:03:33Z</time>
      </trkpt>
      <trkpt lat="44.71712" lon="5.20995">
        <ele>573</ele>
        <time>2022-11-17T10:03:33Z</time>
      </trkpt>
      <trkpt lat="44.71715" lon="5.20983">
        <ele>573</ele>
        <time>2022-11-17T10:03:33Z</time>
      </trkpt>
      <trkpt lat="44.71717" lon="5.20947">
        <ele>573</ele>
        <time>2022-11-17T10:03:33Z</time>
      </trkpt>
      <trkpt lat="44.71711" lon="5.20901">
        <ele>575</ele>
        <time>2022-11-17T10:03:33Z</time>
      </trkpt>
      <trkpt lat="44.71698" lon="5.20881">
        <ele>576</ele>
        <time>2022-11-17T10:03:33Z</time>
      </trkpt>
      <trkpt lat="44.71691" lon="5.20876">
        <ele>576</ele>
        <time>2022-11-17T10:03:33Z</time>
      </trkpt>
      <trkpt lat="44.71675" lon="5.20873">
        <ele>576</ele>
        <time>2022-11-17T10:03:33Z</time>
      </trkpt>
      <trkpt lat="44.71649" lon="5.20881">
        <ele>574</ele>
        <time>2022-11-17T10:03:33Z</time>
      </trkpt>
      <trkpt lat="44.71629" lon="5.20901">
        <ele>573</ele>
        <time>2022-11-17T10:03:33Z</time>
      </trkpt>
      <trkpt lat="44.71583" lon="5.20925">
        <ele>568</ele>
        <time>2022-11-17T10:03:33Z</time>
      </trkpt>
      <trkpt lat="44.71577" lon="5.20917">
        <ele>567</ele>
        <time>2022-11-17T10:03:33Z</time>
      </trkpt>
      <trkpt lat="44.71556" lon="5.20862">
        <ele>570</ele>
        <time>2022-11-17T10:03:33Z</time>
      </trkpt>
      <trkpt lat="44.71542" lon="5.2085">
        <ele>571</ele>
        <time>2022-11-17T10:03:33Z</time>
      </trkpt>
      <trkpt lat="44.71526" lon="5.20854">
        <ele>571</ele>
        <time>2022-11-17T10:03:33Z</time>
      </trkpt>
      <trkpt lat="44.71463" lon="5.209">
        <ele>569</ele>
        <time>2022-11-17T10:03:33Z</time>
      </trkpt>
      <trkpt lat="44.71456" lon="5.20899">
        <ele>569</ele>
        <time>2022-11-17T10:03:33Z</time>
      </trkpt>
      <trkpt lat="44.71448" lon="5.20902">
        <ele>569</ele>
        <time>2022-11-17T10:03:33Z</time>
      </trkpt>
      <trkpt lat="44.71442" lon="5.20894">
        <ele>569</ele>
        <time>2022-11-17T10:03:33Z</time>
      </trkpt>
      <trkpt lat="44.71438" lon="5.20869">
        <ele>569</ele>
        <time>2022-11-17T10:03:33Z</time>
      </trkpt>
      <trkpt lat="44.71438" lon="5.20857">
        <ele>569</ele>
        <time>2022-11-17T10:03:33Z</time>
      </trkpt>
      <trkpt lat="44.71421" lon="5.20786">
        <ele>568</ele>
        <time>2022-11-17T10:03:33Z</time>
      </trkpt>
      <trkpt lat="44.71415" lon="5.20776">
        <ele>567</ele>
        <time>2022-11-17T10:03:33Z</time>
      </trkpt>
      <trkpt lat="44.71401" lon="5.20759">
        <ele>566</ele>
        <time>2022-11-17T10:03:33Z</time>
      </trkpt>
      <trkpt lat="44.71386" lon="5.20734">
        <ele>564</ele>
        <time>2022-11-17T10:03:33Z</time>
      </trkpt>
      <trkpt lat="44.71382" lon="5.20722">
        <ele>563</ele>
        <time>2022-11-17T10:03:33Z</time>
      </trkpt>
      <trkpt lat="44.71375" lon="5.20675">
        <ele>562</ele>
        <time>2022-11-17T10:03:33Z</time>
      </trkpt>
      <trkpt lat="44.71371" lon="5.20587">
        <ele>560</ele>
        <time>2022-11-17T10:03:33Z</time>
      </trkpt>
      <trkpt lat="44.71327" lon="5.2049">
        <ele>556</ele>
        <time>2022-11-17T10:03:33Z</time>
      </trkpt>
      <trkpt lat="44.71321" lon="5.20481">
        <ele>556</ele>
        <time>2022-11-17T10:03:33Z</time>
      </trkpt>
      <trkpt lat="44.71317" lon="5.20457">
        <ele>554</ele>
        <time>2022-11-17T10:03:33Z</time>
      </trkpt>
      <trkpt lat="44.71285" lon="5.20404">
        <ele>552</ele>
        <time>2022-11-17T10:03:33Z</time>
      </trkpt>
      <trkpt lat="44.71277" lon="5.20397">
        <ele>552</ele>
        <time>2022-11-17T10:03:33Z</time>
      </trkpt>
      <trkpt lat="44.71271" lon="5.20388">
        <ele>552</ele>
        <time>2022-11-17T10:03:33Z</time>
      </trkpt>
      <trkpt lat="44.7124" lon="5.20373">
        <ele>552</ele>
        <time>2022-11-17T10:03:33Z</time>
      </trkpt>
      <trkpt lat="44.71226" lon="5.20359">
        <ele>551</ele>
        <time>2022-11-17T10:03:33Z</time>
      </trkpt>
      <trkpt lat="44.71094" lon="5.20304">
        <ele>536</ele>
        <time>2022-11-17T10:03:33Z</time>
      </trkpt>
      <trkpt lat="44.71086" lon="5.20305">
        <ele>535</ele>
        <time>2022-11-17T10:03:33Z</time>
      </trkpt>
      <trkpt lat="44.71078" lon="5.20302">
        <ele>533</ele>
        <time>2022-11-17T10:03:33Z</time>
      </trkpt>
      <trkpt lat="44.71063" lon="5.20289">
        <ele>529</ele>
        <time>2022-11-17T10:03:33Z</time>
      </trkpt>
      <trkpt lat="44.71057" lon="5.20283">
        <ele>527</ele>
        <time>2022-11-17T10:03:33Z</time>
      </trkpt>
      <trkpt lat="44.71049" lon="5.20278">
        <ele>525</ele>
        <time>2022-11-17T10:03:33Z</time>
      </trkpt>
      <trkpt lat="44.7104" lon="5.20277">
        <ele>522</ele>
        <time>2022-11-17T10:03:33Z</time>
      </trkpt>
      <trkpt lat="44.71033" lon="5.20281">
        <ele>520</ele>
        <time>2022-11-17T10:03:33Z</time>
      </trkpt>
      <trkpt lat="44.71028" lon="5.2029">
        <ele>518</ele>
        <time>2022-11-17T10:03:33Z</time>
      </trkpt>
      <trkpt lat="44.71023" lon="5.20296">
        <ele>516</ele>
        <time>2022-11-17T10:03:33Z</time>
      </trkpt>
      <trkpt lat="44.71011" lon="5.20313">
        <ele>512</ele>
        <time>2022-11-17T10:03:33Z</time>
      </trkpt>
      <trkpt lat="44.71005" lon="5.20322">
        <ele>510</ele>
        <time>2022-11-17T10:03:33Z</time>
      </trkpt>
      <trkpt lat="44.71001" lon="5.20331">
        <ele>508</ele>
        <time>2022-11-17T10:03:33Z</time>
      </trkpt>
      <trkpt lat="44.70995" lon="5.20353">
        <ele>504</ele>
        <time>2022-11-17T10:03:33Z</time>
      </trkpt>
      <trkpt lat="44.70992" lon="5.20375">
        <ele>501</ele>
        <time>2022-11-17T10:03:33Z</time>
      </trkpt>
      <trkpt lat="44.70987" lon="5.20384">
        <ele>499</ele>
        <time>2022-11-17T10:03:33Z</time>
      </trkpt>
      <trkpt lat="44.70978" lon="5.2037">
        <ele>491</ele>
        <time>2022-11-17T10:03:33Z</time>
      </trkpt>
      <trkpt lat="44.70969" lon="5.20371">
        <ele>489</ele>
        <time>2022-11-17T10:03:33Z</time>
      </trkpt>
      <trkpt lat="44.70962" lon="5.20366">
        <ele>488</ele>
        <time>2022-11-17T10:03:33Z</time>
      </trkpt>
      <trkpt lat="44.70956" lon="5.20344">
        <ele>486</ele>
        <time>2022-11-17T10:03:33Z</time>
      </trkpt>
      <trkpt lat="44.70928" lon="5.20287">
        <ele>482</ele>
        <time>2022-11-17T10:03:33Z</time>
      </trkpt>
      <trkpt lat="44.70907" lon="5.20259">
        <ele>479</ele>
        <time>2022-11-17T10:03:33Z</time>
      </trkpt>
      <trkpt lat="44.70891" lon="5.20227">
        <ele>476</ele>
        <time>2022-11-17T10:03:33Z</time>
      </trkpt>
      <trkpt lat="44.70885" lon="5.20205">
        <ele>473</ele>
        <time>2022-11-17T10:03:33Z</time>
      </trkpt>
      <trkpt lat="44.7088" lon="5.20174">
        <ele>468</ele>
        <time>2022-11-17T10:03:33Z</time>
      </trkpt>
      <trkpt lat="44.70875" lon="5.2015">
        <ele>464</ele>
        <time>2022-11-17T10:03:33Z</time>
      </trkpt>
      <trkpt lat="44.7087" lon="5.2014">
        <ele>462</ele>
        <time>2022-11-17T10:03:33Z</time>
      </trkpt>
      <trkpt lat="44.70866" lon="5.20126">
        <ele>459</ele>
        <time>2022-11-17T10:03:33Z</time>
      </trkpt>
      <trkpt lat="44.70854" lon="5.20094">
        <ele>453</ele>
        <time>2022-11-17T10:03:33Z</time>
      </trkpt>
      <trkpt lat="44.70849" lon="5.20085">
        <ele>451</ele>
        <time>2022-11-17T10:03:33Z</time>
      </trkpt>
      <trkpt lat="44.70845" lon="5.20074">
        <ele>449</ele>
        <time>2022-11-17T10:03:33Z</time>
      </trkpt>
      <trkpt lat="44.7084" lon="5.20064">
        <ele>446</ele>
        <time>2022-11-17T10:03:33Z</time>
      </trkpt>
      <trkpt lat="44.70834" lon="5.20058">
        <ele>444</ele>
        <time>2022-11-17T10:03:33Z</time>
      </trkpt>
      <trkpt lat="44.70826" lon="5.20056">
        <ele>442</ele>
        <time>2022-11-17T10:03:33Z</time>
      </trkpt>
      <trkpt lat="44.70818" lon="5.20057">
        <ele>439</ele>
        <time>2022-11-17T10:03:33Z</time>
      </trkpt>
      <trkpt lat="44.70814" lon="5.20037">
        <ele>434</ele>
        <time>2022-11-17T10:03:33Z</time>
      </trkpt>
      <trkpt lat="44.70821" lon="5.20029">
        <ele>431</ele>
        <time>2022-11-17T10:03:33Z</time>
      </trkpt>
      <trkpt lat="44.70827" lon="5.20023">
        <ele>429</ele>
        <time>2022-11-17T10:03:33Z</time>
      </trkpt>
      <trkpt lat="44.70833" lon="5.20016">
        <ele>427</ele>
        <time>2022-11-17T10:03:33Z</time>
      </trkpt>
      <trkpt lat="44.70828" lon="5.20008">
        <ele>421</ele>
        <time>2022-11-17T10:03:33Z</time>
      </trkpt>
      <trkpt lat="44.70832" lon="5.19999">
        <ele>418</ele>
        <time>2022-11-17T10:03:33Z</time>
      </trkpt>
      <trkpt lat="44.7084" lon="5.19997">
        <ele>416</ele>
        <time>2022-11-17T10:03:33Z</time>
      </trkpt>
      <trkpt lat="44.70844" lon="5.19989">
        <ele>414</ele>
        <time>2022-11-17T10:03:33Z</time>
      </trkpt>
      <trkpt lat="44.70821" lon="5.1998">
        <ele>409</ele>
        <time>2022-11-17T10:03:33Z</time>
      </trkpt>
      <trkpt lat="44.70813" lon="5.1998">
        <ele>407</ele>
        <time>2022-11-17T10:03:33Z</time>
      </trkpt>
      <trkpt lat="44.70803" lon="5.19983">
        <ele>406</ele>
        <time>2022-11-17T10:03:33Z</time>
      </trkpt>
      <trkpt lat="44.70796" lon="5.19989">
        <ele>404</ele>
        <time>2022-11-17T10:03:33Z</time>
      </trkpt>
      <trkpt lat="44.70789" lon="5.19992">
        <ele>404</ele>
        <time>2022-11-17T10:03:33Z</time>
      </trkpt>
      <trkpt lat="44.70763" lon="5.1999">
        <ele>403</ele>
        <time>2022-11-17T10:03:33Z</time>
      </trkpt>
      <trkpt lat="44.70727" lon="5.1997">
        <ele>402</ele>
        <time>2022-11-17T10:03:33Z</time>
      </trkpt>
      <trkpt lat="44.70684" lon="5.19981">
        <ele>404</ele>
        <time>2022-11-17T10:03:33Z</time>
      </trkpt>
      <trkpt lat="44.70677" lon="5.19979">
        <ele>404</ele>
        <time>2022-11-17T10:03:33Z</time>
      </trkpt>
      <trkpt lat="44.70666" lon="5.1998">
        <ele>403</ele>
        <time>2022-11-17T10:03:33Z</time>
      </trkpt>
      <trkpt lat="44.70648" lon="5.19988">
        <ele>403</ele>
        <time>2022-11-17T10:03:33Z</time>
      </trkpt>
      <trkpt lat="44.70637" lon="5.19987">
        <ele>402</ele>
        <time>2022-11-17T10:03:33Z</time>
      </trkpt>
      <trkpt lat="44.70611" lon="5.19992">
        <ele>401</ele>
        <time>2022-11-17T10:03:33Z</time>
      </trkpt>
      <trkpt lat="44.70603" lon="5.1999">
        <ele>401</ele>
        <time>2022-11-17T10:03:33Z</time>
      </trkpt>
      <trkpt lat="44.70597" lon="5.19995">
        <ele>401</ele>
        <time>2022-11-17T10:03:33Z</time>
      </trkpt>
      <trkpt lat="44.7059" lon="5.20003">
        <ele>401</ele>
        <time>2022-11-17T10:03:33Z</time>
      </trkpt>
      <trkpt lat="44.70573" lon="5.20011">
        <ele>402</ele>
        <time>2022-11-17T10:03:33Z</time>
      </trkpt>
      <trkpt lat="44.70566" lon="5.20019">
        <ele>402</ele>
        <time>2022-11-17T10:03:33Z</time>
      </trkpt>
      <trkpt lat="44.70516" lon="5.20053">
        <ele>405</ele>
        <time>2022-11-17T10:03:33Z</time>
      </trkpt>
      <trkpt lat="44.705" lon="5.20057">
        <ele>404</ele>
        <time>2022-11-17T10:03:33Z</time>
      </trkpt>
      <trkpt lat="44.7046" lon="5.20078">
        <ele>399</ele>
        <time>2022-11-17T10:03:33Z</time>
      </trkpt>
      <trkpt lat="44.70446" lon="5.20095">
        <ele>396</ele>
        <time>2022-11-17T10:03:33Z</time>
      </trkpt>
      <trkpt lat="44.70438" lon="5.20092">
        <ele>395</ele>
        <time>2022-11-17T10:03:34Z</time>
      </trkpt>
      <trkpt lat="44.70433" lon="5.2007">
        <ele>392</ele>
        <time>2022-11-17T10:03:34Z</time>
      </trkpt>
      <trkpt lat="44.7043" lon="5.20059">
        <ele>390</ele>
        <time>2022-11-17T10:03:34Z</time>
      </trkpt>
      <trkpt lat="44.70404" lon="5.20026">
        <ele>384</ele>
        <time>2022-11-17T10:03:34Z</time>
      </trkpt>
      <trkpt lat="44.70389" lon="5.20013">
        <ele>381</ele>
        <time>2022-11-17T10:03:34Z</time>
      </trkpt>
      <trkpt lat="44.7038" lon="5.20008">
        <ele>379</ele>
        <time>2022-11-17T10:03:34Z</time>
      </trkpt>
      <trkpt lat="44.70373" lon="5.20002">
        <ele>377</ele>
        <time>2022-11-17T10:03:34Z</time>
      </trkpt>
      <trkpt lat="44.70366" lon="5.19997">
        <ele>375</ele>
        <time>2022-11-17T10:03:34Z</time>
      </trkpt>
      <trkpt lat="44.70359" lon="5.19993">
        <ele>373</ele>
        <time>2022-11-17T10:03:34Z</time>
      </trkpt>
      <trkpt lat="44.70343" lon="5.19982">
        <ele>369</ele>
        <time>2022-11-17T10:03:34Z</time>
      </trkpt>
      <trkpt lat="44.70313" lon="5.19969">
        <ele>363</ele>
        <time>2022-11-17T10:03:34Z</time>
      </trkpt>
      <trkpt lat="44.70289" lon="5.19954">
        <ele>357</ele>
        <time>2022-11-17T10:03:34Z</time>
      </trkpt>
      <trkpt lat="44.70267" lon="5.19945">
        <ele>352</ele>
        <time>2022-11-17T10:03:34Z</time>
      </trkpt>
      <trkpt lat="44.70245" lon="5.19948">
        <ele>347</ele>
        <time>2022-11-17T10:03:34Z</time>
      </trkpt>
      <trkpt lat="44.7022" lon="5.19954">
        <ele>343</ele>
        <time>2022-11-17T10:03:34Z</time>
      </trkpt>
      <trkpt lat="44.70182" lon="5.19953">
        <ele>335</ele>
        <time>2022-11-17T10:03:34Z</time>
      </trkpt>
      <trkpt lat="44.70157" lon="5.19959">
        <ele>330</ele>
        <time>2022-11-17T10:03:34Z</time>
      </trkpt>
      <trkpt lat="44.70126" lon="5.19944">
        <ele>326</ele>
        <time>2022-11-17T10:03:34Z</time>
      </trkpt>
      <trkpt lat="44.70044" lon="5.19871">
        <ele>316</ele>
        <time>2022-11-17T10:03:34Z</time>
      </trkpt>
      <trkpt lat="44.70035" lon="5.19864">
        <ele>314</ele>
        <time>2022-11-17T10:03:34Z</time>
      </trkpt>
      <trkpt lat="44.70028" lon="5.19856">
        <ele>312</ele>
        <time>2022-11-17T10:03:34Z</time>
      </trkpt>
      <trkpt lat="44.7002" lon="5.1985">
        <ele>310</ele>
        <time>2022-11-17T10:03:34Z</time>
      </trkpt>
      <trkpt lat="44.70014" lon="5.19843">
        <ele>308</ele>
        <time>2022-11-17T10:03:34Z</time>
      </trkpt>
      <trkpt lat="44.70007" lon="5.19836">
        <ele>305</ele>
        <time>2022-11-17T10:03:34Z</time>
      </trkpt>
      <trkpt lat="44.70001" lon="5.19828">
        <ele>303</ele>
        <time>2022-11-17T10:03:34Z</time>
      </trkpt>
      <trkpt lat="44.69996" lon="5.1982">
        <ele>301</ele>
        <time>2022-11-17T10:03:34Z</time>
      </trkpt>
      <trkpt lat="44.69991" lon="5.19812">
        <ele>299</ele>
        <time>2022-11-17T10:03:34Z</time>
      </trkpt>
      <trkpt lat="44.69984" lon="5.19802">
        <ele>296</ele>
        <time>2022-11-17T10:03:34Z</time>
      </trkpt>
      <trkpt lat="44.69977" lon="5.19795">
        <ele>294</ele>
        <time>2022-11-17T10:03:34Z</time>
      </trkpt>
      <trkpt lat="44.69973" lon="5.19786">
        <ele>292</ele>
        <time>2022-11-17T10:03:34Z</time>
      </trkpt>
      <trkpt lat="44.69966" lon="5.19781">
        <ele>289</ele>
        <time>2022-11-17T10:03:34Z</time>
      </trkpt>
      <trkpt lat="44.69911" lon="5.19806">
        <ele>291</ele>
        <time>2022-11-17T10:03:34Z</time>
      </trkpt>
      <trkpt lat="44.69882" lon="5.19835">
        <ele>291</ele>
        <time>2022-11-17T10:03:34Z</time>
      </trkpt>
      <trkpt lat="44.69857" lon="5.19874">
        <ele>290</ele>
        <time>2022-11-17T10:03:34Z</time>
        <extensions>
          <visugpx:TrkExtension xmlns:visugpx="https://www.visugpx.com/editgpx/">
            <visugpx:node>1</visugpx:node>
            </visugpx:TrkExtension>
        </extensions>
      </trkpt>
    </trkseg>
  </trk>
</gpx>